QPF
0.03 0.03 0.03 0.04 0.03 0.02 0.04 0.05 0.03 0.02 0.02 0.04 0.05 0.09 0.11 0.10 0.10 0.10 0.11 0.11 0.10 0.12 0.12 0.11 0.11 0.10 0.11 0.10 0.09 0.09 0.08 0.08 0.11 0.11 0.11 0.09 0.06 0.05 0.05 0.07 0.07 0.05 0.05
0.03 0.03 0.03 0.04 0.03 0.02 0.03 0.03 0.02 0.02 0.02 0.03 0.04 0.06 0.08 0.09 0.10 0.10 0.12 0.14 0.13 0.12 0.13 0.13 0.12 0.12 0.12 0.12 0.12 0.11 0.09 0.10 0.10 0.11 0.09 0.07 0.05 0.04 0.04 0.04 0.04 0.04 0.04
0.03 0.04 0.04 0.04 0.03 0.02 0.03 0.04 0.04 0.04 0.02 0.03 0.04 0.06 0.06 0.08 0.08 0.10 0.13 0.14 0.15 0.16 0.16 0.16 0.15 0.15 0.16 0.16 0.15 0.12 0.09 0.09 0.08 0.08 0.08 0.07 0.05 0.04 0.03 0.03 0.03 0.02 0.02
0.04 0.04 0.04 0.03 0.03 0.03 0.04 0.05 0.06 0.06 0.05 0.05 0.06 0.07 0.07 0.06 0.05 0.08 0.09 0.13 0.14 0.16 0.16 0.17 0.18 0.17 0.18 0.19 0.17 0.13 0.11 0.09 0.09 0.10 0.10 0.07 0.05 0.05 0.04 0.03 0.02 0.02 0.02
0.02 0.03 0.05 0.04 0.05 0.06 0.07 0.05 0.06 0.07 0.06 0.05 0.05 0.06 0.06 0.05 0.05 0.04 0.05 0.08 0.09 0.11 0.13 0.15 0.16 0.17 0.19 0.22 0.24 0.18 0.14 0.09 0.08 0.07 0.07 0.05 0.04 0.04 0.04 0.02 0.01 0.02 0.03
0.04 0.04 0.04 0.06 0.06 0.07 0.08 0.08 0.06 0.05 0.04 0.04 0.04 0.04 0.05 0.05 0.04 0.04 0.04 0.05 0.07 0.08 0.09 0.11 0.14 0.15 0.18 0.20 0.22 0.17 0.14 0.11 0.08 0.06 0.05 0.04 0.04 0.04 0.02 0.01 0.02 0.03 0.02
0.03 0.04 0.03 0.05 0.05 0.07 0.08 0.07 0.06 0.05 0.03 0.04 0.05 0.05 0.04 0.04 0.03 0.03 0.03 0.03 0.05 0.07 0.07 0.06 0.08 0.10 0.11 0.12 0.13 0.11 0.10 0.10 0.09 0.08 0.07 0.06 0.05 0.03 0.02 0.02 0.02 0.02 0.02
0.02 0.02 0.03 0.04 0.04 0.05 0.06 0.07 0.06 0.05 0.05 0.05 0.05 0.05 0.05 0.05 0.04 0.03 0.02 0.02 0.03 0.05 0.05 0.04 0.05 0.07 0.10 0.11 0.12 0.08 0.06 0.06 0.06 0.06 0.07 0.06 0.04 0.02 0.02 0.02 0.02 0.02 0.03
0.02 0.02 0.03 0.03 0.03 0.03 0.04 0.05 0.05 0.06 0.06 0.07 0.05 0.06 0.06 0.06 0.05 0.04 0.02 0.02 0.02 0.04 0.05 0.04 0.04 0.05 0.10 0.13 0.10 0.07 0.05 0.04 0.04 0.04 0.04 0.05 0.04 0.03 0.02 0.02 0.02 0.02 0.02
0.01 0.01 0.02 0.02 0.03 0.02 0.02 0.03 0.03 0.05 0.08 0.09 0.08 0.06 0.07 0.06 0.05 0.05 0.04 0.02 0.02 0.03 0.03 0.03 0.02 0.03 0.06 0.11 0.09 0.06 0.04 0.04 0.05 0.05 0.04 0.04 0.06 0.06 0.05 0.04 0.03 0.04 0.05
0.01 0.01 0.02 0.02 0.03 0.02 0.02 0.03 0.03 0.05 0.07 0.09 0.09 0.08 0.08 0.06 0.05 0.04 0.04 0.05 0.04 0.04 0.03 0.02 0.01 0.02 0.04 0.07 0.09 0.06 0.04 0.04 0.04 0.04 0.04 0.04 0.05 0.09 0.09 0.06 0.06 0.08 0.09
0.02 0.02 0.01 0.01 0.02 0.02 0.02 0.02 0.04 0.05 0.06 0.07 0.07 0.08 0.08 0.05 0.05 0.05 0.04 0.04 0.05 0.04 0.03 0.02 0.02 0.02 0.04 0.07 0.08 0.06 0.04 0.04 0.03 0.02 0.03 0.05 0.06 0.09 0.10 0.09 0.10 0.08 0.06
0.02 0.02 0.02 0.03 0.02 0.02 0.02 0.02 0.03 0.04 0.04 0.05 0.06 0.07 0.06 0.05 0.05 0.05 0.05 0.04 0.04 0.04 0.04 0.03 0.02 0.03 0.03 0.05 0.08 0.06 0.04 0.03 0.03 0.02 0.02 0.02 0.03 0.03 0.04 0.06 0.07 0.05 0.04
0.02 0.02 0.03 0.02 0.02 0.02 0.02 0.03 0.03 0.03 0.04 0.05 0.06 0.08 0.07 0.05 0.05 0.05 0.05 0.04 0.04 0.04 0.05 0.05 0.04 0.03 0.03 0.05 0.07 0.06 0.05 0.03 0.02 0.02 0.02 0.01 0.01 0.02 0.02 0.03 0.04 0.04 0.04
0.01 0.01 0.03 0.02 0.02 0.02 0.02 0.02 0.03 0.03 0.05 0.06 0.06 0.06 0.05 0.05 0.05 0.05 0.05 0.04 0.04 0.04 0.04 0.05 0.05 0.04 0.04 0.06 0.06 0.06 0.05 0.03 0.02 0.02 0.01 0.01 0.01 0.02 0.02 0.03 0.03 0.03 0.03
0.01 0.02 0.02 0.02 0.02 0.03 0.03 0.03 0.03 0.03 0.04 0.07 0.07 0.06 0.04 0.03 0.03 0.03 0.03 0.03 0.02 0.03 0.04 0.04 0.05 0.05 0.06 0.07 0.06 0.05 0.04 0.03 0.03 0.02 0.02 0.01 0.02 0.02 0.03 0.03 0.03 0.03 0.03
0.02 0.02 0.02 0.01 0.01 0.02 0.03 0.03 0.02 0.02 0.03 0.04 0.06 0.05 0.04 0.03 0.02 0.03 0.03 0.02 0.02 0.03 0.04 0.04 0.04 0.05 0.06 0.06 0.06 0.06 0.03 0.03 0.03 0.03 0.02 0.03 0.02 0.02 0.02 0.03 0.03 0.03 0.03
0.02 0.02 0.02 0.01 0.01 0.02 0.03 0.03 0.02 0.01 0.01 0.02 0.03 0.04 0.04 0.03 0.03 0.03 0.03 0.03 0.03 0.03 0.04 0.04 0.05 0.06 0.05 0.04 0.05 0.06 0.04 0.03 0.03 0.04 0.04 0.04 0.03 0.02 0.02 0.02 0.01 0.02 0.02
0.01 0.01 0.01 0.01 0.02 0.02 0.02 0.02 0.02 0.01 0.01 0.01 0.01 0.02 0.04 0.05 0.03 0.03 0.03 0.03 0.03 0.04 0.04 0.04 0.05 0.05 0.04 0.03 0.03 0.05 0.03 0.03 0.03 0.04 0.05 0.03 0.03 0.01 0.01 0.00 0.00 0.00 0.00
0.03 0.02 0.02 0.02 0.03 0.03 0.02 0.02 0.02 0.01 0.01 0.01 0.01 0.01 0.01 0.03 0.03 0.03 0.03 0.04 0.04 0.05 0.05 0.04 0.04 0.03 0.03 0.03 0.05 0.05 0.04 0.02 0.02 0.03 0.04 0.02 0.01 0.01 0.00 0.00 0.00 0.00 0.00
0.04 0.02 0.02 0.02 0.03 0.03 0.02 0.02 0.02 0.02 0.01 0.01 0.01 0.01 0.01 0.01 0.01 0.02 0.02 0.03 0.03 0.04 0.04 0.03 0.03 0.03 0.02 0.03 0.04 0.04 0.03 0.02 0.03 0.02 0.02 0.02 0.02 0.01 0.01 0.00 0.00 0.00 0.00
0.03 0.02 0.02 0.02 0.02 0.03 0.03 0.03 0.02 0.02 0.02 0.02 0.02 0.01 0.01 0.01 0.01 0.01 0.01 0.01 0.02 0.02 0.02 0.03 0.02 0.02 0.02 0.03 0.04 0.04 0.05 0.03 0.03 0.02 0.03 0.03 0.03 0.03 0.02 0.01 0.01 0.00 0.00
0.03 0.03 0.02 0.03 0.02 0.02 0.02 0.02 0.01 0.02 0.02 0.02 0.02 0.01 0.01 0.01 0.01 0.01 0.01 0.01 0.02 0.02 0.02 0.02 0.02 0.02 0.02 0.03 0.05 0.06 0.07 0.07 0.06 0.06 0.05 0.05 0.04 0.03 0.02 0.01 0.01 0.01 0.01
0.03 0.03 0.02 0.01 0.02 0.01 0.01 0.01 0.02 0.03 0.03 0.02 0.02 0.02 0.01 0.01 0.01 0.01 0.01 0.01 0.01 0.02 0.02 0.02 0.02 0.03 0.03 0.03 0.05 0.06 0.08 0.09 0.09 0.07 0.06 0.05 0.04 0.03 0.02 0.02 0.02 0.02 0.02
0.03 0.03 0.03 0.03 0.02 0.02 0.01 0.01 0.02 0.03 0.03 0.02 0.01 0.01 0.01 0.01 0.01 0.01 0.01 0.01 0.02 0.02 0.02 0.02 0.02 0.03 0.04 0.04 0.04 0.05 0.06 0.06 0.07 0.07 0.06 0.05 0.04 0.03 0.03 0.03 0.02 0.02 0.01
0.03 0.02 0.03 0.03 0.03 0.03 0.02 0.01 0.01 0.02 0.03 0.03 0.02 0.01 0.01 0.01 0.02 0.02 0.01 0.01 0.02 0.02 0.03 0.04 0.03 0.03 0.03 0.03 0.04 0.04 0.05 0.06 0.06 0.05 0.04 0.03 0.03 0.02 0.01 0.02 0.02 0.01 0.01
MSLP
1010.51 1009.89 1009.24 1008.60 1008.00 1007.47 1007.00 1006.59 1006.22 1005.88 1005.54 1005.20 1004.87 1004.58 1004.36 1004.25 1004.28 1004.48 1004.86 1005.39 1006.07 1006.85 1007.70 1008.58 1009.44 1010.28 1011.06 1011.77 1012.42 1013.01 1013.55 1014.04 1014.51 1014.96 1015.41 1015.86 1016.32 1016.80 1017.27 1017.74 1018.19 1018.61 1019.00
1011.22 1010.58 1009.89 1009.18 1008.50 1007.88 1007.32 1006.85 1006.43 1006.07 1005.73 1005.41 1005.12 1004.86 1004.66 1004.55 1004.57 1004.73 1005.05 1005.52 1006.12 1006.83 1007.59 1008.39 1009.19 1009.95 1010.67 1011.35 1011.98 1012.57 1013.12 1013.66 1014.18 1014.70 1015.21 1015.72 1016.22 1016.72 1017.20 1017.67 1018.12 1018.55 1018.95
1011.94 1011.32 1010.62 1009.89 1009.16 1008.47 1007.85 1007.31 1006.84 1006.44 1006.09 1005.77 1005.49 1005.24 1005.06 1004.96 1004.97 1005.11 1005.39 1005.80 1006.32 1006.93 1007.60 1008.29 1008.98 1009.64 1010.28 1010.90 1011.49 1012.08 1012.66 1013.24 1013.83 1014.42 1015.00 1015.57 1016.12 1016.65 1017.15 1017.62 1018.07 1018.49 1018.91
1012.59 1012.01 1011.35 1010.64 1009.91 1009.20 1008.54 1007.95 1007.43 1006.97 1006.58 1006.24 1005.94 1005.70 1005.52 1005.43 1005.43 1005.55 1005.79 1006.14 1006.59 1007.10 1007.65 1008.21 1008.77 1009.32 1009.86 1010.41 1010.96 1011.54 1012.15 1012.79 1013.45 1014.12 1014.78 1015.42 1016.02 1016.57 1017.09 1017.56 1018.01 1018.43 1018.85
1013.11 1012.60 1012.00 1011.35 1010.67 1009.98 1009.31 1008.69 1008.12 1007.62 1007.18 1006.79 1006.46 1006.20 1006.01 1005.90 1005.90 1006.00 1006.20 1006.49 1006.85 1007.26 1007.68 1008.12 1008.55 1008.98 1009.41 1009.88 1010.40 1010.98 1011.62 1012.32 1013.06 1013.81 1014.55 1015.25 1015.90 1016.48 1017.00 1017.48 1017.92 1018.34 1018.76
1013.47 1013.04 1012.54 1011.97 1011.36 1010.73 1010.09 1009.47 1008.88 1008.33 1007.84 1007.40 1007.02 1006.72 1006.49 1006.36 1006.33 1006.40 1006.56 1006.79 1007.07 1007.37 1007.68 1007.99 1008.29 1008.60 1008.94 1009.35 1009.84 1010.42 1011.10 1011.86 1012.67 1013.50 1014.32 1015.07 1015.76 1016.36 1016.89 1017.36 1017.79 1018.21 1018.62
1013.71 1013.35 1012.94 1012.47 1011.96 1011.41 1010.83 1010.23 1009.63 1009.06 1008.51 1008.02 1007.58 1007.23 1006.96 1006.80 1006.73 1006.76 1006.86 1007.02 1007.22 1007.42 1007.62 1007.80 1007.99 1008.21 1008.48 1008.84 1009.31 1009.90 1010.62 1011.44 1012.32 1013.22 1014.08 1014.89 1015.60 1016.21 1016.74 1017.20 1017.63 1018.04 1018.45
1013.85 1013.55 1013.22 1012.86 1012.44 1011.98 1011.47 1010.91 1010.33 1009.74 1009.17 1008.63 1008.14 1007.74 1007.42 1007.20 1007.09 1007.06 1007.10 1007.19 1007.30 1007.40 1007.50 1007.59 1007.69 1007.83 1008.05 1008.38 1008.85 1009.46 1010.22 1011.09 1012.02 1012.97 1013.88 1014.70 1015.43 1016.05 1016.58 1017.03 1017.45 1017.85 1018.27
1013.99 1013.71 1013.44 1013.15 1012.82 1012.43 1011.99 1011.48 1010.93 1010.35 1009.76 1009.19 1008.67 1008.21 1007.85 1007.58 1007.40 1007.32 1007.29 1007.29 1007.32 1007.34 1007.35 1007.36 1007.39 1007.48 1007.67 1008.00 1008.48 1009.13 1009.92 1010.83 1011.79 1012.77 1013.69 1014.53 1015.26 1015.88 1016.40 1016.85 1017.26 1017.67 1018.09
1014.16 1013.89 1013.64 1013.39 1013.11 1012.78 1012.39 1011.93 1011.41 1010.84 1010.25 1009.67 1009.13 1008.64 1008.24 1007.92 1007.68 1007.52 1007.42 1007.35 1007.29 1007.23 1007.18 1007.13 1007.13 1007.20 1007.39 1007.73 1008.23 1008.91 1009.72 1010.65 1011.64 1012.61 1013.54 1014.37 1015.10 1015.71 1016.23 1016.68 1017.10 1017.51 1017.94
1014.42 1014.12 1013.86 1013.61 1013.34 1013.03 1012.66 1012.23 1011.74 1011.20 1010.63 1010.05 1009.50 1009.00 1008.56 1008.20 1007.91 1007.68 1007.51 1007.36 1007.24 1007.12 1007.01 1006.94 1006.92 1007.00 1007.21 1007.57 1008.10 1008.80 1009.63 1010.56 1011.54 1012.51 1013.41 1014.23 1014.94 1015.54 1016.06 1016.53 1016.96 1017.39 1017.82
1014.75 1014.41 1014.10 1013.81 1013.51 1013.19 1012.82 1012.40 1011.93 1011.41 1010.86 1010.31 1009.76 1009.26 1008.80 1008.41 1008.07 1007.79 1007.56 1007.35 1007.17 1007.01 1006.88 1006.79 1006.79 1006.89 1007.13 1007.53 1008.09 1008.80 1009.64 1010.55 1011.50 1012.44 1013.31 1014.10 1014.79 1015.39 1015.91 1016.39 1016.84 1017.28 1017.73
1015.11 1014.72 1014.35 1013.99 1013.64 1013.27 1012.88 1012.44 1011.98 1011.48 1010.95 1010.42 1009.90 1009.40 1008.95 1008.54 1008.17 1007.85 1007.57 1007.32 1007.10 1006.92 1006.79 1006.72 1006.74 1006.88 1007.17 1007.60 1008.18 1008.90 1009.72 1010.61 1011.52 1012.41 1013.24 1013.99 1014.66 1015.25 1015.77 1016.26 1016.72 1017.17 1017.63
1015.46 1015.01 1014.56 1014.13 1013.71 1013.28 1012.84 1012.38 1011.91 1011.42 1010.92 1010.41 1009.92 1009.44 1008.99 1008.58 1008.20 1007.85 1007.55 1007.27 1007.04 1006.86 1006.75 1006.71 1006.78 1006.98 1007.30 1007.77 1008.38 1009.09 1009.89 1010.73 1011.59 1012.41 1013.19 1013.89 1014.53 1015.10 1015.62 1016.11 1016.58 1017.04 1017.48
1015.73 1015.22 1014.71 1014.21 1013.71 1013.22 1012.73 1012.25 1011.76 1011.28 1010.79 1010.31 1009.84 1009.38 1008.95 1008.54 1008.16 1007.80 1007.49 1007.22 1007.00 1006.84 1006.76 1006.77 1006.90 1007.15 1007.53 1008.03 1008.64 1009.35 1010.11 1010.90 1011.68 1012.44 1013.15 1013.80 1014.39 1014.94 1015.45 1015.93 1016.40 1016.84 1017.27
1015.85 1015.32 1014.76 1014.21 1013.66 1013.12 1012.59 1012.08 1011.58 1011.09 1010.61 1010.15 1009.69 1009.26 1008.83 1008.43 1008.06 1007.71 1007.41 1007.15 1006.95 1006.83 1006.80 1006.88 1007.06 1007.37 1007.79 1008.32 1008.94 1009.63 1010.34 1011.07 1011.78 1012.46 1013.10 1013.68 1014.23 1014.74 1015.23 1015.69 1016.14 1016.57 1016.96
1015.80 1015.26 1014.70 1014.12 1013.55 1012.99 1012.44 1011.91 1011.40 1010.90 1010.42 1009.96 1009.52 1009.08 1008.67 1008.28 1007.91 1007.58 1007.29 1007.06 1006.90 1006.82 1006.84 1006.97 1007.22 1007.58 1008.04 1008.59 1009.21 1009.87 1010.54 1011.20 1011.84 1012.44 1013.00 1013.52 1014.01 1014.47 1014.93 1015.37 1015.79 1016.20 1016.56
1015.58 1015.07 1014.52 1013.96 1013.40 1012.84 1012.30 1011.76 1011.24 1010.74 1010.25 1009.78 1009.33 1008.90 1008.48 1008.09 1007.73 1007.41 1007.14 1006.93 1006.81 1006.77 1006.84 1007.02 1007.32 1007.72 1008.21 1008.77 1009.38 1010.01 1010.63 1011.24 1011.80 1012.33 1012.81 1013.27 1013.70 1014.12 1014.54 1014.95 1015.35 1015.74 1016.09
1015.20 1014.73 1014.24 1013.73 1013.21 1012.69 1012.16 1011.63 1011.11 1010.60 1010.10 1009.62 1009.15 1008.71 1008.28 1007.89 1007.53 1007.21 1006.96 1006.77 1006.67 1006.66 1006.76 1006.98 1007.30 1007.73 1008.23 1008.79 1009.39 1009.99 1010.57 1011.12 1011.63 1012.09 1012.51 1012.91 1013.29 1013.67 1014.05 1014.44 1014.83 1015.21 1015.56
1014.70 1014.29 1013.87 1013.43 1012.98 1012.51 1012.02 1011.51 1010.99 1010.47 1009.96 1009.46 1008.97 1008.51 1008.08 1007.67 1007.31 1007.00 1006.74 1006.56 1006.47 1006.48 1006.59 1006.81 1007.14 1007.57 1008.07 1008.62 1009.20 1009.77 1010.32 1010.83 1011.28 1011.70 1012.07 1012.43 1012.77 1013.12 1013.48 1013.86 1014.25 1014.64 1015.02
1014.09 1013.76 1013.42 1013.06 1012.68 1012.27 1011.82 1011.34 1010.83 1010.31 1009.79 1009.27 1008.78 1008.30 1007.86 1007.45 1007.08 1006.77 1006.51 1006.33 1006.23 1006.23 1006.33 1006.54 1006.85 1007.26 1007.73 1008.26 1008.81 1009.36 1009.88 1010.36 1010.79 1011.17 1011.52 1011.84 1012.16 1012.50 1012.85 1013.24 1013.65 1014.07 1014.49
1013.43 1013.16 1012.89 1012.60 1012.28 1011.92 1011.51 1011.06 1010.57 1010.06 1009.54 1009.03 1008.53 1008.07 1007.63 1007.23 1006.87 1006.55 1006.29 1006.10 1005.98 1005.94 1006.01 1006.18 1006.45 1006.82 1007.26 1007.76 1008.28 1008.80 1009.30 1009.76 1010.18 1010.55 1010.88 1011.20 1011.51 1011.84 1012.21 1012.61 1013.05 1013.51 1014.00
1012.73 1012.50 1012.28 1012.04 1011.76 1011.44 1011.06 1010.63 1010.16 1009.67 1009.17 1008.69 1008.22 1007.79 1007.38 1007.01 1006.67 1006.36 1006.10 1005.89 1005.74 1005.67 1005.68 1005.79 1006.01 1006.32 1006.72 1007.17 1007.66 1008.16 1008.65 1009.11 1009.52 1009.89 1010.23 1010.55 1010.87 1011.21 1011.58 1012.01 1012.47 1012.99 1013.53
1012.03 1011.81 1011.59 1011.36 1011.10 1010.78 1010.42 1010.01 1009.57 1009.11 1008.66 1008.23 1007.82 1007.45 1007.10 1006.78 1006.48 1006.20 1005.95 1005.72 1005.54 1005.42 1005.38 1005.43 1005.58 1005.83 1006.17 1006.59 1007.05 1007.53 1008.01 1008.47 1008.89 1009.27 1009.62 1009.96 1010.29 1010.64 1011.03 1011.46 1011.95 1012.49 1013.07
1011.35 1011.09 1010.85 1010.59 1010.30 1009.97 1009.61 1009.21 1008.80 1008.40 1008.01 1007.66 1007.34 1007.05 1006.79 1006.54 1006.30 1006.05 1005.81 1005.58 1005.37 1005.21 1005.11 1005.10 1005.19 1005.39 1005.68 1006.06 1006.49 1006.96 1007.44 1007.91 1008.34 1008.74 1009.11 1009.46 1009.80 1010.15 1010.54 1010.97 1011.46 1012.00 1012.59
1010.71 1010.40 1010.08 1009.77 1009.43 1009.06 1008.68 1008.29 1007.91 1007.57 1007.26 1006.99 1006.77 1006.59 1006.42 1006.25 1006.07 1005.87 1005.65 1005.42 1005.19 1005.00 1004.86 1004.80 1004.84 1005.00 1005.25 1005.60 1006.03 1006.49 1006.97 1007.45 1007.90 1008.32 1008.70 1009.05 1009.40 1009.75 1010.13 1010.54 1011.01 1011.52 1012.08
Thickness
5749 5749 5747 5746 5747 5748 5747 5745 5745 5744 5745 5745 5746 5747 5747 5748 5749 5749 5747 5744 5743 5742 5741 5739 5737 5736 5734 5733 5731 5730 5728 5727 5726 5724 5724 5722 5722 5721 5720 5719 5718 5718 5717
5746 5746 5745 5744 5745 5745 5745 5744 5744 5743 5743 5743 5743 5744 5745 5746 5746 5746 5746 5745 5743 5741 5740 5738 5736 5735 5734 5733 5731 5729 5728 5726 5725 5723 5722 5721 5721 5720 5719 5718 5717 5717 5716
5744 5743 5744 5743 5744 5743 5742 5742 5742 5741 5741 5741 5741 5741 5742 5743 5744 5744 5744 5745 5744 5741 5740 5737 5736 5735 5733 5732 5730 5729 5727 5725 5724 5722 5721 5720 5720 5719 5718 5717 5716 5716 5715
5742 5741 5742 5742 5741 5741 5741 5740 5740 5739 5738 5737 5738 5738 5740 5740 5741 5741 5742 5743 5743 5743 5740 5737 5735 5734 5732 5731 5729 5728 5726 5724 5723 5722 5721 5720 5719 5718 5717 5716 5715 5715 5714
5742 5741 5740 5739 5739 5739 5738 5739 5738 5736 5734 5734 5735 5735 5737 5738 5738 5740 5740 5741 5740 5740 5739 5736 5734 5733 5731 5730 5728 5727 5725 5724 5723 5721 5720 5720 5719 5718 5717 5716 5714 5714 5713
5741 5740 5739 5737 5737 5737 5736 5735 5733 5733 5733 5733 5735 5734 5735 5736 5736 5737 5737 5738 5737 5737 5737 5736 5735 5733 5730 5729 5727 5726 5724 5723 5722 5721 5720 5719 5718 5717 5716 5715 5714 5713 5712
5740 5739 5739 5737 5736 5735 5734 5734 5733 5732 5732 5733 5732 5731 5733 5735 5734 5734 5735 5735 5735 5734 5734 5734 5733 5732 5731 5728 5726 5724 5723 5722 5721 5720 5719 5718 5717 5716 5715 5714 5713 5712 5710
5739 5740 5737 5737 5736 5734 5733 5732 5731 5731 5731 5732 5730 5729 5728 5728 5730 5734 5733 5732 5732 5733 5732 5732 5730 5729 5729 5729 5726 5724 5722 5721 5720 5719 5718 5717 5715 5714 5714 5713 5711 5710 5709
5738 5736 5736 5736 5735 5735 5733 5731 5730 5728 5728 5730 5730 5728 5726 5724 5727 5729 5729 5730 5729 5730 5730 5730 5728 5728 5727 5727 5726 5723 5721 5720 5718 5717 5716 5715 5714 5713 5712 5711 5710 5709 5707
5737 5735 5734 5734 5733 5734 5732 5731 5731 5729 5727 5727 5729 5729 5728 5727 5723 5723 5727 5728 5728 5727 5727 5728 5728 5727 5725 5725 5723 5721 5719 5718 5716 5715 5715 5714 5713 5711 5710 5709 5707 5706 5705
5735 5734 5733 5732 5731 5732 5731 5730 5728 5727 5728 5727 5727 5727 5726 5725 5726 5722 5720 5722 5724 5725 5725 5725 5725 5725 5724 5722 5721 5719 5716 5715 5714 5713 5712 5710 5710 5709 5707 5706 5705 5703 5702
5734 5732 5732 5730 5729 5729 5729 5728 5727 5727 5726 5725 5726 5726 5725 5725 5725 5724 5721 5720 5720 5721 5722 5722 5722 5722 5721 5721 5718 5715 5713 5712 5710 5710 5709 5707 5706 5705 5704 5703 5702 5701 5699
5732 5729 5729 5728 5728 5727 5727 5726 5725 5725 5725 5723 5723 5724 5725 5725 5726 5725 5722 5720 5718 5719 5718 5719 5720 5719 5719 5717 5715 5711 5709 5708 5707 5706 5705 5704 5702 5702 5701 5700 5699 5697 5696
5729 5727 5726 5726 5725 5725 5725 5724 5724 5723 5722 5721 5722 5721 5721 5722 5723 5723 5720 5718 5715 5716 5716 5715 5717 5717 5715 5713 5711 5708 5707 5705 5703 5703 5702 5700 5699 5699 5698 5696 5695 5694 5693
5727 5725 5723 5723 5722 5722 5721 5721 5721 5720 5719 5719 5720 5719 5719 5719 5719 5719 5719 5718 5714 5710 5711 5712 5712 5713 5711 5709 5706 5706 5704 5701 5700 5699 5698 5698 5697 5695 5694 5693 5691 5690 5689
5722 5721 5720 5719 5719 5719 5718 5718 5717 5716 5715 5715 5715 5714 5714 5716 5716 5716 5717 5716 5715 5712 5709 5711 5710 5710 5708 5707 5703 5702 5700 5698 5696 5695 5695 5694 5693 5692 5690 5689 5687 5686 5685
5719 5717 5716 5716 5715 5715 5714 5713 5714 5713 5712 5711 5711 5710 5709 5710 5711 5713 5713 5713 5712 5710 5706 5707 5707 5705 5703 5701 5700 5699 5697 5696 5694 5691 5690 5689 5688 5687 5685 5684 5683 5681 5680
5715 5714 5713 5712 5712 5711 5710 5709 5709 5709 5707 5707 5706 5705 5705 5706 5705 5707 5707 5707 5706 5706 5703 5700 5700 5700 5698 5697 5696 5695 5695 5693 5691 5687 5685 5684 5682 5681 5680 5678 5677 5676 5675
5712 5711 5710 5708 5707 5706 5705 5705 5704 5704 5703 5702 5702 5701 5701 5701 5700 5700 5700 5701 5702 5702 5700 5698 5696 5696 5695 5694 5692 5691 5690 5688 5687 5684 5681 5678 5677 5676 5674 5673 5671 5670 5669
5708 5706 5706 5704 5703 5702 5701 5700 5699 5699 5698 5698 5698 5697 5697 5696 5695 5695 5694 5694 5695 5694 5694 5693 5692 5691 5690 5688 5687 5686 5684 5684 5684 5682 5678 5675 5672 5671 5669 5667 5666 5664 5663
5704 5702 5701 5699 5698 5697 5697 5696 5694 5694 5692 5692 5693 5693 5692 5690 5689 5688 5690 5689 5689 5689 5690 5688 5687 5686 5684 5682 5682 5682 5680 5679 5679 5678 5675 5674 5671 5669 5666 5663 5661 5659 5657
5698 5697 5695 5694 5693 5693 5689 5687 5688 5688 5687 5686 5686 5687 5687 5685 5683 5681 5680 5680 5680 5681 5682 5681 5681 5679 5677 5677 5676 5675 5675 5673 5672 5673 5670 5669 5668 5666 5663 5661 5657 5654 5652
5692 5690 5689 5688 5687 5684 5682 5680 5680 5681 5682 5681 5681 5681 5683 5683 5680 5680 5676 5674 5673 5672 5672 5673 5674 5672 5672 5671 5669 5669 5667 5667 5665 5666 5664 5663 5663 5661 5660 5657 5652 5648 5646
5684 5683 5682 5681 5680 5678 5674 5673 5673 5674 5676 5675 5675 5675 5675 5675 5675 5673 5673 5672 5671 5670 5668 5667 5667 5667 5667 5665 5663 5662 5661 5659 5659 5660 5658 5656 5657 5656 5656 5652 5647 5644 5640
5677 5676 5675 5675 5674 5672 5668 5667 5666 5669 5669 5669 5670 5670 5669 5668 5665 5664 5664 5664 5663 5663 5662 5660 5659 5658 5658 5657 5655 5656 5655 5654 5653 5654 5653 5650 5650 5649 5649 5648 5643 5638 5635
5671 5670 5669 5668 5667 5666 5662 5661 5659 5664 5664 5663 5663 5663 5661 5661 5658 5656 5657 5658 5657 5657 5657 5656 5654 5653 5653 5653 5650 5649 5650 5649 5648 5647 5647 5644 5643 5643 5642 5642 5639 5634 5631